Weather History for Kalispell, MT

Change the Weather History Date:

Wednesday, May 15, 2013

  Actual Average Record
Temperature  
Mean Temperature 45 °F 52 °F  
Max Temperature 64 °F 65 °F 85 °F (2006)
Min Temperature 25 °F 38 °F 25 °F (2013)
Degree Days  
Heating Degree Days 20 13  
Month to date heating degree days 173 232  
Since 1 July heating degree days 7078 7643  
Cooling Degree Days 0 0  
Month to date cooling degree days 0 0  
Year to date cooling degree days 0 0  
Moisture  
Dew Point 30 °F    
Average Humidity 64    
Maximum Humidity 100    
Minimum Humidity 27    
Precipitation  
Precipitation 0.00 in 0.06 in 0.95 in (1981)
Month to date precipitation 0.04 0.78  
Year to date precipitation 3.39 5.41  
Snow  
Snow 0.00 in - - ()
Month to date snowfall T  
Year to date snowfall 9.2  
Since 1 July snowfall 18.0  
Snow Depth 0.00 in    
Sea Level Pressure  
Sea Level Pressure 30.03 in    
Wind  
Wind Speed 2 mph (SSE)    
Max Wind Speed 13 mph    
Max Gust Speed 15 mph    
Visibility 10 miles    
Events      
T = Trace of Precipitation, MM = Missing Value Source: NWS Daily Summary

Daily Weather History Graph

Daily Weather History Graph

Search for Another Location

Airport:

Trip Planner

Search our weather history database for the weather conditions in past years. The results will help you decide how hot, cold, wet, or windy it might be!

Date:

Astronomy

May. 15, 2013 Rise Set
Actual Time 5:56 AM MDT 9:10 PM MDT
Civil Twilight 5:19 AM MDT 9:48 PM MDT
Nautical Twilight 4:30 AM MDT 10:37 PM MDT
Astronomical Twilight 3:28 AM MDT 11:40 PM MDT
Moon 10:41 AM MDT (5/15) 12:55 AM MDT (5/15)
Length of Visible Light 16h 28m
Length of Day
15h 13m
Waxing Crescent, 27% of the Moon is Illuminated
May 15
Waxing Crescent
May 17
First Quarter
May 24
Full
May 31
Last Quarter
Jun 8
New

Hourly Weather History & Observations

Time (MDT) Temp. Windchill Dew Point Humidity Pressure Visibility Wind Dir Wind Speed Gust Speed Precip Events Conditions
12:55 AM 35.1 °F - 27.0 °F 72% 30.10 in 10.0 mi Calm Calm - N/A   Clear
1:55 AM 30.9 °F 27.5 °F 26.1 °F 82% 30.12 in 10.0 mi WSW 3.5 mph - N/A   Clear
2:55 AM 30.9 °F - 26.1 °F 82% 30.12 in 10.0 mi Calm Calm - N/A   Clear
3:55 AM 30.9 °F - 28.0 °F 89% 30.12 in 10.0 mi Calm Calm - N/A   Clear
4:55 AM 28.0 °F - 26.1 °F 92% 30.13 in 10.0 mi Calm Calm - N/A   Clear
5:55 AM 27.0 °F - 26.1 °F 96% 30.12 in 10.0 mi Calm Calm - N/A   Clear
7:55 AM 37.9 °F - 33.1 °F 83% 30.13 in 10.0 mi Calm Calm - N/A   Clear
8:55 AM 46.0 °F 44.8 °F 32.0 °F 58% 30.11 in 10.0 mi Variable 3.5 mph - N/A   Clear
9:55 AM 51.1 °F - 32.0 °F 48% 30.10 in 10.0 mi Calm Calm - N/A   Clear
10:55 AM 54.0 °F - 30.0 °F 40% 30.08 in 10.0 mi Calm Calm - N/A   Clear
11:55 AM 57.9 °F - 32.0 °F 37% 30.06 in 10.0 mi SE 3.5 mph - N/A   Clear
12:55 PM 61.0 °F - 28.0 °F 29% 30.04 in 10.0 mi Calm Calm - N/A   Clear
1:55 PM 61.0 °F - 28.9 °F 30% 30.02 in 10.0 mi Calm Calm - N/A   Clear
2:55 PM 62.1 °F - 28.0 °F 28% 29.99 in 10.0 mi Variable 3.5 mph - N/A   Clear
3:55 PM 63.0 °F - 32.0 °F 31% 29.98 in 10.0 mi South 10.4 mph - N/A   Clear
4:55 PM 62.1 °F - 28.9 °F 29% 29.98 in 10.0 mi South 11.5 mph - N/A   Clear
5:55 PM 61.0 °F - 30.0 °F 31% 29.97 in 10.0 mi South 11.5 mph - N/A   Clear
6:55 PM 60.1 °F - 30.0 °F 32% 29.95 in 10.0 mi Calm Calm - N/A   Partly Cloudy
7:55 PM 60.1 °F - 30.0 °F 32% 29.92 in 10.0 mi Calm Calm - N/A   Mostly Cloudy
8:55 PM 55.9 °F - 32.0 °F 40% 29.91 in 10.0 mi ESE 3.5 mph - N/A   Clear
9:55 PM 52.0 °F - 33.1 °F 49% 29.91 in 10.0 mi Calm Calm - N/A   Scattered Clouds
10:55 PM 46.9 °F - 37.0 °F 68% 29.92 in 10.0 mi North 3.5 mph - N/A   Overcast
11:55 PM 48.0 °F - 37.9 °F 68% 29.91 in 10.0 mi NNE 4.6 mph - N/A   Overcast